Overview Statistics Trail Chart Weather Telemetry Raw packets
 

This is the latest recevied weather packets stored in our database for station/object WA1TYB-13. If no packets are shown the sender has not sent any weather packets the latest 10 day(s).

<< 95 96 97 98 99 100 101 >>
Time Temp. Humidity Pressure Rain* Wind** Luminosity Snow
1787901071 16.11° C 53% 1017.2 hPa 0 mm - 0 W/m² -
1787900770 16.67° C 51% 1017.6 hPa 0 mm - 0 W/m² -
1787900466 17.22° C 49% 1017.7 hPa 0 mm - 0 W/m² -
1787900165 18.33° C 47% 1017.5 hPa 0 mm - 0 W/m² -
1787899860 18.33° C 46% 1017.1 hPa 0 mm - 0 W/m² -
1787899556 17.78° C 47% 1017.5 hPa 0 mm - 0 W/m² -
1787899256 18.89° C 45% 1017.5 hPa 0 mm - 0 W/m² -
1787898951 18.89° C 43% 1017.5 hPa 0 mm - 0 W/m² -
1787898647 20° C 42% 1017.1 hPa 0 mm - 0 W/m² -
1787898345 19.44° C 42% 1017.2 hPa 0 mm - 0 W/m² -
1787898040 19.44° C 42% 1017.2 hPa 0 mm - 0 W/m² -
1787897735 20.56° C 39% 1017.2 hPa 0 mm - 0 W/m² -
1787897435 20.56° C 38% 1016.9 hPa 0 mm - 0 W/m² -
1787897133 20.56° C 39% 1017.4 hPa 0 mm - 0 W/m² -
1787896828 20° C 39% 1017.1 hPa 0 mm - 0 W/m² -
1787896524 20.56° C 40% 1017.2 hPa 0 mm - 0 W/m² -
1787896219 20.56° C 40% 1017.2 hPa 0 mm - 0 W/m² -
1787895915 20.56° C 41% 1017.2 hPa 0 mm - 0 W/m² -
1787895609 20.56° C 41% 1017 hPa 0 mm - 0 W/m² -
1787895305 21.11° C 40% 1017.2 hPa 0 mm - 0 W/m² -
1787894999 21.11° C 41% 1017.1 hPa 0 mm - 0 W/m² -
1787894695 20.56° C 42% 1017 hPa 0 mm - 0 W/m² -
1787894389 20° C 45% 1016.9 hPa 0 mm - 0 W/m² -
1787894084 20° C 45% 1016.9 hPa 0 mm - 0 W/m² -
1787893782 20.56° C 44% 1017.1 hPa 0 mm - 0 W/m² -

* Rain latest hour (hover to see other rain measurements)
** Current wind speed in m/s (hover to see current wind gust speed)